"Sample Date","Sample Time","Sample Value","Units","Flow Rate","Sample Interval","Number Channels","Micron Size 0","Counts/Channel 0","Micron Size 1","Counts/Channel 1","Micron Size 2","Counts/Channel 2","Micron Size 3","Counts/Channel 3","Micron Size 4","Counts/Channel 4","Micron Size 5","Counts/Channel 5","Micron Size 6","Counts/Channel 6","Micron Size 7","Counts/Channel 7","Micron Size 8","Counts/Channel 8","Micron Size 9","Counts/Channel 9","Micron Size 10","Counts/Channel 10","Micron Size 11","Counts/Channel 11","Micron Size 12","Counts/Channel 12","Micron Size 13","Counts/Channel 13","Micron Size 14","Counts/Channel 14","Micron Size 15","Counts/Channel 15","Micron Size 16","Counts/Channel 16","Micron Size 17","Counts/Channel 17","Micron Size 18","Counts/Channel 18","Micron Size 19","Counts/Channel 19","Micron Size 20","Counts/Channel 20","Micron Size 21","Counts/Channel 21","Micron Size 22","Counts/Channel 22","Micron Size 23","Counts/Channel 23","Micron Size 24","Counts/Channel 24","Micron Size 25","Counts/Channel 25","Micron Size 26","Counts/Channel 26","Micron Size 27","Counts/Channel 27","Micron Size 28","Counts/Channel 28","Micron Size 29","Counts/Channel 29","Micron Size 30","Counts/Channel 30","Micron Size 31","Counts/Channel 31"
"03/12/08","10:00:02",23294.000,"cc",28295.004,6.00,6,0.100,21253.000,0.200,1416.000,0.300,503.000,0.500,116.000,1.000,6.000,5.000,0
"03/12/08","10:00:08",22241.000,"cc",28232.891,6.00,6,0.100,20700.000,0.200,1153.000,0.300,341.000,0.500,46.000,1.000,1.000,5.000,0
"03/12/08","10:00:14",22566.000,"cc",28328.836,6.00,6,0.100,20857.000,0.200,1313.000,0.300,343.000,0.500,49.000,1.000,4.000,5.000,0
"03/12/08","10:00:20",22150.000,"cc",28335.213,6.00,6,0.100,20486.000,0.200,1303.000,0.300,314.000,0.500,46.000,1.000,1.000,5.000,0
"03/12/08","10:00:26",22460.000,"cc",28336.422,6.00,6,0.100,20574.000,0.200,1314.000,0.300,471.000,0.500,97.000,1.000,4.000,5.000,0
"03/12/08","10:00:32",23083.000,"cc",28316.492,6.00,6,0.100,21149.000,0.200,1364.000,0.300,462.000,0.500,104.000,1.000,4.000,5.000,0
"03/12/08","10:00:38",22488.000,"cc",28327.926,6.00,6,0.100,20746.000,0.200,1262.000,0.300,383.000,0.500,95.000,1.000,2.000,5.000,0
"03/12/08","10:00:44",22634.000,"cc",28300.508,6.00,6,0.100,20933.000,0.200,1327.000,0.300,325.000,0.500,47.000,1.000,2.000,5.000,0
"03/12/08","10:00:50",21963.000,"cc",28320.420,6.00,6,0.100,20361.000,0.200,1145.000,0.300,384.000,0.500,70.000,1.000,3.000,5.000,0
"03/12/08","10:00:56",22658.000,"cc",28346.176,6.00,6,0.100,20583.000,0.200,1370.000,0.300,524.000,0.500,167.000,1.000,14.000,5.000,0
"03/12/08","10:01:02",22440.000,"cc",28374.371,6.00,6,0.100,20717.000,0.200,1251.000,0.300,397.000,0.500,74.000,1.000,1.000,5.000,0
"03/12/08","10:01:08",23143.000,"cc",28329.596,6.00,6,0.100,21361.000,0.200,1315.000,0.300,410.000,0.500,56.000,1.000,1.000,5.000,0
"03/12/08","10:01:14",22601.000,"cc",28269.693,6.00,6,0.100,20779.000,0.200,1361.000,0.300,409.000,0.500,51.000,1.000,1.000,5.000,0
"03/12/08","10:01:20",22401.000,"cc",28277.197,6.00,6,0.100,20653.000,0.200,1286.000,0.300,372.000,0.500,87.000,1.000,3.000,5.000,0
"03/12/08","10:01:26",23388.000,"cc",28345.348,6.00,6,0.100,21308.000,0.200,1427.000,0.300,525.000,0.500,120.000,1.000,8.000,5.000,0
"03/12/08","10:01:32",22709.000,"cc",28343.057,6.00,6,0.100,21099.000,0.200,1225.000,0.300,334.000,0.500,51.000,1.000,0,5.000,0
"03/12/08","10:01:38",22893.000,"cc",28326.315,6.00,6,0.100,21096.000,0.200,1363.000,0.300,386.000,0.500,47.000,1.000,1.000,5.000,0
"03/12/08","10:01:44",23054.000,"cc",28236.334,6.00,6,0.100,21065.000,0.200,1390.000,0.300,486.000,0.500,107.000,1.000,6.000,5.000,0
"03/12/08","10:01:50",22653.000,"cc",28343.328,6.00,6,0.100,20874.000,0.200,1214.000,0.300,446.000,0.500,114.000,1.000,5.000,5.000,0
"03/12/08","10:01:56",22533.000,"cc",28333.004,6.00,6,0.100,20741.000,0.200,1264.000,0.300,415.000,0.500,109.000,1.000,4.000,5.000,0
"03/12/08","10:02:02",23010.000,"cc",28330.594,6.00,6,0.100,21273.000,0.200,1253.000,0.300,410.000,0.500,73.000,1.000,1.000,5.000,0
"03/12/08","10:02:08",22778.000,"cc",28388.711,6.00,6,0.100,21028.000,0.200,1302.000,0.300,395.000,0.500,53.000,1.000,0,5.000,0
"03/12/08","10:02:14",22747.000,"cc",28299.307,6.00,6,0.100,21063.000,0.200,1231.000,0.300,374.000,0.500,78.000,1.000,1.000,5.000,0
"03/12/08","10:02:20",22812.000,"cc",28279.412,6.00,6,0.100,21021.000,0.200,1329.000,0.300,422.000,0.500,40.000,1.000,0,5.000,0
"03/12/08","10:02:26",22543.000,"cc",28328.510,6.00,6,0.100,20946.000,0.200,1248.000,0.300,313.000,0.500,36.000,1.000,0,5.000,0
"03/12/08","10:02:32",23406.000,"cc",28332.574,6.00,6,0.100,21276.000,0.200,1400.000,0.300,533.000,0.500,182.000,1.000,15.000,5.000,0
"03/12/08","10:02:38",22880.000,"cc",28318.619,6.00,6,0.100,21085.000,0.200,1283.000,0.300,417.000,0.500,92.000,1.000,3.000,5.000,0
"03/12/08","10:02:44",23080.000,"cc",28264.516,6.00,6,0.100,21168.000,0.200,1353.000,0.300,458.000,0.500,98.000,1.000,3.000,5.000,0
"03/12/08","10:02:50",22849.000,"cc",28298.660,6.00,6,0.100,21248.000,0.200,1227.000,0.300,324.000,0.500,50.000,1.000,0,5.000,0
"03/12/08","10:02:56",22930.000,"cc",28246.529,6.00,6,0.100,21006.000,0.200,1344.000,0.300,491.000,0.500,88.000,1.000,1.000,5.000,0
"03/12/08","10:03:02",22548.000,"cc",28250.533,6.00,6,0.100,20645.000,0.200,1305.000,0.300,482.000,0.500,115.000,1.000,1.000,5.000,0
"03/12/08","10:03:08",22734.000,"cc",28302.367,6.00,6,0.100,20961.000,0.200,1302.000,0.300,398.000,0.500,72.000,1.000,1.000,5.000,0
"03/12/08","10:03:14",22930.000,"cc",28399.900,6.00,6,0.100,21085.000,0.200,1290.000,0.300,442.000,0.500,111.000,1.000,2.000,5.000,0
"03/12/08","10:03:20",22668.000,"cc",28375.596,6.00,6,0.100,21054.000,0.200,1215.000,0.300,344.000,0.500,55.000,1.000,0,5.000,0
"03/12/08","10:03:26",22801.000,"cc",28317.412,6.00,6,0.100,20860.000,0.200,1323.000,0.300,476.000,0.500,135.000,1.000,7.000,5.000,0
"03/12/08","10:03:32",22408.000,"cc",28351.387,6.00,6,0.100,20660.000,0.200,1242.000,0.300,391.000,0.500,110.000,1.000,5.000,5.000,0
"03/12/08","10:03:38",22888.000,"cc",28341.481,6.00,6,0.100,20968.000,0.200,1320.000,0.300,476.000,0.500,118.000,1.000,6.000,5.000,0
"03/12/08","10:03:44",23369.000,"cc",28287.686,6.00,6,0.100,21292.000,0.200,1422.000,0.300,491.000,0.500,156.000,1.000,8.000,5.000,0
"03/12/08","10:03:50",23120.000,"cc",28244.346,6.00,6,0.100,21192.000,0.200,1385.000,0.300,454.000,0.500,86.000,1.000,3.000,5.000,0
"03/12/08","10:03:56",22434.000,"cc",28268.611,6.00,6,0.100,20754.000,0.200,1291.000,0.300,331.000,0.500,58.000,1.000,0,5.000,0
"03/12/08","10:04:02",22998.000,"cc",28371.910,6.00,6,0.100,21343.000,0.200,1274.000,0.300,324.000,0.500,56.000,1.000,1.000,5.000,0
"03/12/08","10:04:08",22638.000,"cc",28339.986,6.00,6,0.100,20893.000,0.200,1259.000,0.300,416.000,0.500,68.000,1.000,2.000,5.000,0
"03/12/08","10:04:14",23009.000,"cc",28283.807,6.00,6,0.100,21265.000,0.200,1325.000,0.300,358.000,0.500,59.000,1.000,2.000,5.000,0
"03/12/08","10:04:20",22968.000,"cc",28331.236,6.00,6,0.100,21334.000,0.200,1231.000,0.300,318.000,0.500,83.000,1.000,2.000,5.000,0
"03/12/08","10:04:26",23216.000,"cc",28309.117,6.00,6,0.100,21167.000,0.200,1379.000,0.300,497.000,0.500,160.000,1.000,13.000,5.000,0
"03/12/08","10:04:32",23500.000,"cc",28316.518,6.00,6,0.100,21515.000,0.200,1392.000,0.300,487.000,0.500,102.000,1.000,4.000,5.000,0
"03/12/08","10:04:38",22977.000,"cc",28282.484,6.00,6,0.100,21191.000,0.200,1352.000,0.300,362.000,0.500,71.000,1.000,1.000,5.000,0
"03/12/08","10:04:44",23786.000,"cc",28357.832,6.00,6,0.100,21846.000,0.200,1430.000,0.300,431.000,0.500,76.000,1.000,3.000,5.000,0
"03/12/08","10:04:50",23462.000,"cc",28372.162,6.00,6,0.100,21457.000,0.200,1363.000,0.300,506.000,0.500,133.000,1.000,3.000,5.000,0
"03/12/08","10:04:56",22655.000,"cc",28276.920,6.00,6,0.100,20840.000,0.200,1313.000,0.300,413.000,0.500,86.000,1.000,3.000,5.000,0
"03/12/08","10:05:02",23282.000,"cc",28280.096,6.00,6,0.100,21227.000,0.200,1413.000,0.300,526.000,0.500,115.000,1.000,1.000,5.000,0
"03/12/08","10:05:08",23399.000,"cc",28299.486,6.00,6,0.100,21494.000,0.200,1382.000,0.300,450.000,0.500,72.000,1.000,1.000,5.000,0
"03/12/08","10:05:14",23339.000,"cc",28392.625,6.00,6,0.100,21455.000,0.200,1418.000,0.300,408.000,0.500,58.000,1.000,0,5.000,0
"03/12/08","10:05:20",23240.000,"cc",28289.949,6.00,6,0.100,21397.000,0.200,1350.000,0.300,422.000,0.500,70.000,1.000,1.000,5.000,0
"03/12/08","10:05:26",23805.000,"cc",28335.447,6.00,6,0.100,21542.000,0.200,1467.000,0.300,623.000,0.500,168.000,1.000,5.000,5.000,0
"03/12/08","10:05:32",23315.000,"cc",28315.320,6.00,6,0.100,21401.000,0.200,1350.000,0.300,493.000,0.500,69.000,1.000,2.000,5.000,0
"03/12/08","10:05:38",23535.000,"cc",28363.940,6.00,6,0.100,21506.000,0.200,1464.000,0.300,465.000,0.500,98.000,1.000,2.000,5.000,0
"03/12/08","10:05:44",23428.000,"cc",28276.727,6.00,6,0.100,21423.000,0.200,1339.000,0.300,505.000,0.500,156.000,1.000,5.000,5.000,0
"03/12/08","10:05:50",23417.000,"cc",28307.211,6.00,6,0.100,21516.000,0.200,1321.000,0.300,487.000,0.500,87.000,1.000,6.000,5.000,0
"03/12/08","10:05:56",23303.000,"cc",28300.375,6.00,6,0.100,21513.000,0.200,1337.000,0.300,371.000,0.500,81.000,1.000,1.000,5.000,0
"03/12/08","10:06:02",23176.000,"cc",28228.717,6.00,6,0.100,21311.000,0.200,1308.000,0.300,455.000,0.500,97.000,1.000,5.000,5.000,0
"03/12/08","10:06:08",23323.000,"cc",28304.693,6.00,6,0.100,21300.000,0.200,1406.000,0.300,502.000,0.500,114.000,1.000,1.000,5.000,0
"03/12/08","10:06:14",23605.000,"cc",28350.037,6.00,6,0.100,21497.000,0.200,1386.000,0.300,530.000,0.500,183.000,1.000,9.000,5.000,0
"03/12/08","10:06:20",23499.000,"cc",28323.080,6.00,6,0.100,21454.000,0.200,1397.000,0.300,499.000,0.500,143.000,1.000,6.000,5.000,0
"03/12/08","10:06:26",23910.000,"cc",28277.674,6.00,6,0.100,21814.000,0.200,1413.000,0.300,509.000,0.500,170.000,1.000,4.000,5.000,0
"03/12/08","10:06:32",23654.000,"cc",28371.893,6.00,6,0.100,21695.000,0.200,1394.000,0.300,476.000,0.500,83.000,1.000,6.000,5.000,0
"03/12/08","10:06:38",23569.000,"cc",28285.789,6.00,6,0.100,21591.000,0.200,1427.000,0.300,437.000,0.500,111.000,1.000,3.000,5.000,0
"03/12/08","10:06:44",23862.000,"cc",28374.760,6.00,6,0.100,21505.000,0.200,1536.000,0.300,581.000,0.500,225.000,1.000,15.000,5.000,0
"03/12/08","10:06:50",23835.000,"cc",28226.826,6.00,6,0.100,21577.000,0.200,1463.000,0.300,620.000,0.500,166.000,1.000,9.000,5.000,0
"03/12/08","10:06:56",23259.000,"cc",28295.791,6.00,6,0.100,21380.000,0.200,1391.000,0.300,428.000,0.500,58.000,1.000,2.000,5.000,0
"03/12/08","10:07:02",23129.000,"cc",28408.738,6.00,6,0.100,21349.000,0.200,1325.000,0.300,375.000,0.500,75.000,1.000,5.000,5.000,0
"03/12/08","10:07:08",23459.000,"cc",28330.106,6.00,6,0.100,21427.000,0.200,1354.000,0.300,520.000,0.500,150.000,1.000,8.000,5.000,0
"03/12/08","10:07:14",23794.000,"cc",28299.449,6.00,6,0.100,21581.000,0.200,1453.000,0.300,556.000,0.500,195.000,1.000,9.000,5.000,0
"03/12/08","10:07:20",23312.000,"cc",28302.631,6.00,6,0.100,21600.000,0.200,1277.000,0.300,370.000,0.500,61.000,1.000,4.000,5.000,0
"03/12/08","10:07:26",23673.000,"cc",28288.338,6.00,6,0.100,21699.000,0.200,1431.000,0.300,455.000,0.500,86.000,1.000,2.000,5.000,0
"03/12/08","10:07:32",23224.000,"cc",28336.285,6.00,6,0.100,21484.000,0.200,1327.000,0.300,357.000,0.500,55.000,1.000,1.000,5.000,0
"03/12/08","10:07:38",24328.000,"cc",28328.359,6.00,6,0.100,21940.000,0.200,1492.000,0.300,576.000,0.500,297.000,1.000,23.000,5.000,0
"03/12/08","10:07:44",22966.000,"cc",28334.928,6.00,6,0.100,21281.000,0.200,1259.000,0.300,354.000,0.500,69.000,1.000,3.000,5.000,0
"03/12/08","10:07:50",23410.000,"cc",28313.139,6.00,6,0.100,21563.000,0.200,1299.000,0.300,415.000,0.500,125.000,1.000,8.000,5.000,0
"03/12/08","10:07:56",23312.000,"cc",28278.992,6.00,6,0.100,21485.000,0.200,1317.000,0.300,421.000,0.500,87.000,1.000,2.000,5.000,0
"03/12/08","10:08:02",23129.000,"cc",28328.941,6.00,6,0.100,21389.000,0.200,1291.000,0.300,391.000,0.500,58.000,1.000,0,5.000,0
"03/12/08","10:08:08",23754.000,"cc",28309.359,6.00,6,0.100,21663.000,0.200,1428.000,0.300,502.000,0.500,153.000,1.000,8.000,5.000,0
"03/12/08","10:08:14",23879.000,"cc",28377.627,6.00,6,0.100,21686.000,0.200,1475.000,0.300,548.000,0.500,161.000,1.000,9.000,5.000,0
"03/12/08","10:08:20",23174.000,"cc",28347.871,6.00,6,0.100,21297.000,0.200,1334.000,0.300,439.000,0.500,101.000,1.000,3.000,5.000,0
"03/12/08","10:08:26",24094.000,"cc",28309.506,6.00,6,0.100,21852.000,0.200,1440.000,0.300,594.000,0.500,196.000,1.000,12.000,5.000,0
"03/12/08","10:08:32",23273.000,"cc",28353.600,6.00,6,0.100,21242.000,0.200,1390.000,0.300,542.000,0.500,96.000,1.000,3.000,5.000,0
"03/12/08","10:08:38",24046.000,"cc",28265.104,6.00,6,0.100,21529.000,0.200,1535.000,0.300,681.000,0.500,278.000,1.000,23.000,5.000,0
"03/12/08","10:08:44",23070.000,"cc",28319.979,6.00,6,0.100,21213.000,0.200,1342.000,0.300,412.000,0.500,98.000,1.000,5.000,5.000,0
"03/12/08","10:08:50",23601.000,"cc",28332.383,6.00,6,0.100,21665.000,0.200,1370.000,0.300,430.000,0.500,130.000,1.000,6.000,5.000,0
"03/12/08","10:08:56",23355.000,"cc",28300.690,6.00,6,0.100,21550.000,0.200,1336.000,0.300,400.000,0.500,66.000,1.000,3.000,5.000,0
"03/12/08","10:09:02",23835.000,"cc",28320.941,6.00,6,0.100,21559.000,0.200,1477.000,0.300,531.000,0.500,254.000,1.000,14.000,5.000,0
"03/12/08","10:09:08",23285.000,"cc",28319.371,6.00,6,0.100,21351.000,0.200,1368.000,0.300,460.000,0.500,102.000,1.000,4.000,5.000,0
"03/12/08","10:09:14",23412.000,"cc",28250.004,6.00,6,0.100,21469.000,0.200,1357.000,0.300,477.000,0.500,106.000,1.000,3.000,5.000,0
"03/12/08","10:09:20",24062.000,"cc",28305.092,6.00,6,0.100,21875.000,0.200,1434.000,0.300,570.000,0.500,168.000,1.000,15.000,5.000,0
"03/12/08","10:09:26",24583.000,"cc",28347.582,6.00,6,0.100,21960.000,0.200,1503.000,0.300,739.000,0.500,361.000,1.000,20.000,5.000,0
"03/12/08","10:09:32",24068.000,"cc",28311.647,6.00,6,0.100,21990.000,0.200,1407.000,0.300,553.000,0.500,116.000,1.000,2.000,5.000,0
"03/12/08","10:09:38",23116.000,"cc",28357.957,6.00,6,0.100,21408.000,0.200,1225.000,0.300,406.000,0.500,76.000,1.000,1.000,5.000,0
"03/12/08","10:09:44",23880.000,"cc",28288.193,6.00,6,0.100,21830.000,0.200,1345.000,0.300,552.000,0.500,147.000,1.000,6.000,5.000,0
"03/12/08","10:09:50",23591.000,"cc",28306.215,6.00,6,0.100,21618.000,0.200,1379.000,0.300,478.000,0.500,113.000,1.000,3.000,5.000,0
"03/12/08","10:09:56",23456.000,"cc",28334.361,6.00,6,0.100,21651.000,0.200,1321.000,0.300,406.000,0.500,72.000,1.000,6.000,5.000,0
"03/12/08","10:10:02",23617.000,"cc",28285.752,6.00,6,0.100,21396.000,0.200,1429.000,0.300,583.000,0.500,200.000,1.000,9.000,5.000,0
"03/12/08","10:10:08",24145.000,"cc",28302.391,6.00,6,0.100,21889.000,0.200,1473.000,0.300,566.000,0.500,203.000,1.000,14.000,5.000,0
"03/12/08","10:10:14",23528.000,"cc",28317.699,6.00,6,0.100,21613.000,0.200,1303.000,0.300,482.000,0.500,127.000,1.000,3.000,5.000,0
"03/12/08","10:10:20",23706.000,"cc",28343.895,6.00,6,0.100,21690.000,0.200,1409.000,0.300,484.000,0.500,118.000,1.000,5.000,5.000,0
"03/12/08","10:10:26",23675.000,"cc",28311.941,6.00,6,0.100,21682.000,0.200,1404.000,0.300,464.000,0.500,122.000,1.000,3.000,5.000,0
"03/12/08","10:10:32",23453.000,"cc",28350.732,6.00,6,0.100,21581.000,0.200,1330.000,0.300,444.000,0.500,96.000,1.000,2.000,5.000,0
"03/12/08","10:10:38",23430.000,"cc",28305.375,6.00,6,0.100,21594.000,0.200,1346.000,0.300,417.000,0.500,73.000,1.000,0,5.000,0
"03/12/08","10:10:44",23247.000,"cc",28292.641,6.00,6,0.100,21340.000,0.200,1355.000,0.300,444.000,0.500,105.000,1.000,3.000,5.000,0
"03/12/08","10:10:50",23617.000,"cc",28294.244,6.00,6,0.100,21532.000,0.200,1446.000,0.300,504.000,0.500,132.000,1.000,3.000,5.000,0
"03/12/08","10:10:56",23060.000,"cc",28279.578,6.00,6,0.100,21351.000,0.200,1269.000,0.300,362.000,0.500,76.000,1.000,2.000,5.000,0
"03/12/08","10:11:02",23594.000,"cc",28328.934,6.00,6,0.100,21606.000,0.200,1360.000,0.300,492.000,0.500,133.000,1.000,3.000,5.000,0
"03/12/08","10:11:08",23872.000,"cc",28331.502,6.00,6,0.100,21912.000,0.200,1361.000,0.300,458.000,0.500,137.000,1.000,4.000,5.000,0
"03/12/08","10:11:14",23719.000,"cc",28348.660,6.00,6,0.100,21733.000,0.200,1325.000,0.300,498.000,0.500,150.000,1.000,13.000,5.000,0
"03/12/08","10:11:20",23465.000,"cc",28349.801,6.00,6,0.100,21536.000,0.200,1365.000,0.300,454.000,0.500,100.000,1.000,10.000,5.000,0
"03/12/08","10:11:26",24146.000,"cc",28314.356,6.00,6,0.100,21750.000,0.200,1568.000,0.300,586.000,0.500,220.000,1.000,22.000,5.000,0
"03/12/08","10:11:32",23758.000,"cc",28333.172,6.00,6,0.100,21750.000,0.200,1374.000,0.300,504.000,0.500,127.000,1.000,3.000,5.000,0
"03/12/08","10:11:38",24094.000,"cc",28313.053,6.00,6,0.100,21849.000,0.200,1532.000,0.300,572.000,0.500,135.000,1.000,6.000,5.000,0
"03/12/08","10:11:44",23330.000,"cc",28246.947,6.00,6,0.100,21539.000,0.200,1355.000,0.300,383.000,0.500,53.000,1.000,0,5.000,0
"03/12/08","10:11:50",23780.000,"cc",28303.041,6.00,6,0.100,21784.000,0.200,1408.000,0.300,467.000,0.500,117.000,1.000,4.000,5.000,0
"03/12/08","10:11:56",23776.000,"cc",28315.697,6.00,6,0.100,21879.000,0.200,1368.000,0.300,393.000,0.500,127.000,1.000,9.000,5.000,0
"03/12/08","10:12:02",23337.000,"cc",28326.578,6.00,6,0.100,21427.000,0.200,1320.000,0.300,464.000,0.500,122.000,1.000,4.000,5.000,0
"03/12/08","10:12:08",24112.000,"cc",28277.723,6.00,6,0.100,22036.000,0.200,1401.000,0.300,521.000,0.500,146.000,1.000,8.000,5.000,0
"03/12/08","10:12:14",23858.000,"cc",28383.217,6.00,6,0.100,21794.000,0.200,1368.000,0.300,526.000,0.500,156.000,1.000,14.000,5.000,0
"03/12/08","10:12:20",23826.000,"cc",28263.783,6.00,6,0.100,21690.000,0.200,1458.000,0.300,534.000,0.500,141.000,1.000,3.000,5.000,0
"03/12/08","10:12:26",23935.000,"cc",28355.693,6.00,6,0.100,21730.000,0.200,1478.000,0.300,581.000,0.500,145.000,1.000,1.000,5.000,0
"03/12/08","10:12:32",23541.000,"cc",28306.014,6.00,6,0.100,21550.000,0.200,1375.000,0.300,512.000,0.500,102.000,1.000,2.000,5.000,0
"03/12/08","10:12:38",24213.000,"cc",28303.770,6.00,6,0.100,21805.000,0.200,1483.000,0.300,672.000,0.500,241.000,1.000,12.000,5.000,0
"03/12/08","10:12:44",23813.000,"cc",28290.859,6.00,6,0.100,21707.000,0.200,1455.000,0.300,517.000,0.500,128.000,1.000,6.000,5.000,0
"03/12/08","10:12:50",23745.000,"cc",28283.897,6.00,6,0.100,21443.000,0.200,1434.000,0.300,647.000,0.500,216.000,1.000,5.000,5.000,0
"03/12/08","10:12:56",23582.000,"cc",28405.381,6.00,6,0.100,21218.000,0.200,1460.000,0.300,720.000,0.500,183.000,1.000,1.000,5.000,0
"03/12/08","10:13:02",23827.000,"cc",28282.338,6.00,6,0.100,21351.000,0.200,1545.000,0.300,697.000,0.500,223.000,1.000,11.000,5.000,0
"03/12/08","10:13:08",24018.000,"cc",28339.479,6.00,6,0.100,21905.000,0.200,1382.000,0.300,561.000,0.500,165.000,1.000,5.000,5.000,0
"03/12/08","10:13:14",23355.000,"cc",28338.893,6.00,6,0.100,21493.000,0.200,1372.000,0.300,419.000,0.500,71.000,1.000,0,5.000,0
"03/12/08","10:13:20",23333.000,"cc",28250.604,6.00,6,0.100,21491.000,0.200,1319.000,0.300,408.000,0.500,112.000,1.000,3.000,5.000,0
"03/12/08","10:13:26",23756.000,"cc",28344.881,6.00,6,0.100,21280.000,0.200,1477.000,0.300,710.000,0.500,277.000,1.000,12.000,5.000,0
"03/12/08","10:13:32",24378.000,"cc",28316.383,6.00,6,0.100,21623.000,0.200,1574.000,0.300,772.000,0.500,385.000,1.000,24.000,5.000,0
"03/12/08","10:13:38",23799.000,"cc",28348.357,6.00,6,0.100,21345.000,0.200,1454.000,0.300,694.000,0.500,293.000,1.000,13.000,5.000,0
"03/12/08","10:13:44",23577.000,"cc",28357.734,6.00,6,0.100,21255.000,0.200,1436.000,0.300,622.000,0.500,248.000,1.000,16.000,5.000,0
"03/12/08","10:13:50",23200.000,"cc",28223.736,6.00,6,0.100,21384.000,0.200,1293.000,0.300,423.000,0.500,100.000,1.000,0,5.000,0
"03/12/08","10:13:56",23634.000,"cc",28233.018,6.00,6,0.100,21361.000,0.200,1478.000,0.300,587.000,0.500,194.000,1.000,14.000,5.000,0
"03/12/08","10:14:02",23606.000,"cc",28339.916,6.00,6,0.100,21505.000,0.200,1422.000,0.300,521.000,0.500,158.000,1.000,0,5.000,0
"03/12/08","10:14:08",23010.000,"cc",28361.111,6.00,6,0.100,21086.000,0.200,1342.000,0.300,445.000,0.500,131.000,1.000,6.000,5.000,0
"03/12/08","10:14:14",23118.000,"cc",28311.244,6.00,6,0.100,21207.000,0.200,1323.000,0.300,464.000,0.500,123.000,1.000,1.000,5.000,0
"03/12/08","10:14:20",23498.000,"cc",28365.123,6.00,6,0.100,21531.000,0.200,1350.000,0.300,480.000,0.500,130.000,1.000,7.000,5.000,0
"03/12/08","10:14:26",22919.000,"cc",28334.920,6.00,6,0.100,21183.000,0.200,1289.000,0.300,364.000,0.500,81.000,1.000,2.000,5.000,0
"03/12/08","10:14:32",22971.000,"cc",28303.660,6.00,6,0.100,21250.000,0.200,1277.000,0.300,372.000,0.500,71.000,1.000,1.000,5.000,0
"03/12/08","10:14:38",23302.000,"cc",28295.867,6.00,6,0.100,21378.000,0.200,1336.000,0.300,448.000,0.500,136.000,1.000,4.000,5.000,0
"03/12/08","10:14:44",23204.000,"cc",28330.035,6.00,6,0.100,21416.000,0.200,1269.000,0.300,426.000,0.500,90.000,1.000,3.000,5.000,0
"03/12/08","10:14:50",23457.000,"cc",28342.918,6.00,6,0.100,21534.000,0.200,1336.000,0.300,477.000,0.500,110.000,1.000,0,5.000,0
"03/12/08","10:14:56",23502.000,"cc",28274.793,6.00,6,0.100,21519.000,0.200,1393.000,0.300,466.000,0.500,120.000,1.000,4.000,5.000,0
"03/12/08","10:15:02",23378.000,"cc",28342.412,6.00,6,0.100,21323.000,0.200,1419.000,0.300,532.000,0.500,102.000,1.000,2.000,5.000,0
"03/12/08","10:15:08",23575.000,"cc",28297.371,6.00,6,0.100,21442.000,0.200,1335.000,0.300,593.000,0.500,190.000,1.000,15.000,5.000,0
"03/12/08","10:15:14",23604.000,"cc",28324.301,6.00,6,0.100,21470.000,0.200,1355.000,0.300,563.000,0.500,205.000,1.000,11.000,5.000,0
"03/12/08","10:15:20",22942.000,"cc",28282.773,6.00,6,0.100,21101.000,0.200,1311.000,0.300,442.000,0.500,84.000,1.000,4.000,5.000,0
"03/12/08","10:15:26",23278.000,"cc",28304.527,6.00,6,0.100,21369.000,0.200,1273.000,0.300,508.000,0.500,121.000,1.000,7.000,5.000,0
"03/12/08","10:15:32",23242.000,"cc",28371.484,6.00,6,0.100,21263.000,0.200,1403.000,0.300,489.000,0.500,85.000,1.000,2.000,5.000,0
"03/12/08","10:15:38",22986.000,"cc",28332.711,6.00,6,0.100,21135.000,0.200,1345.000,0.300,415.000,0.500,90.000,1.000,1.000,5.000,0
"03/12/08","10:15:44",22897.000,"cc",28345.840,6.00,6,0.100,21128.000,0.200,1264.000,0.300,424.000,0.500,78.000,1.000,3.000,5.000,0
"03/12/08","10:15:50",22933.000,"cc",28305.172,6.00,6,0.100,21200.000,0.200,1211.000,0.300,452.000,0.500,69.000,1.000,1.000,5.000,0
"03/12/08","10:15:56",23079.000,"cc",28292.182,6.00,6,0.100,21414.000,0.200,1279.000,0.300,348.000,0.500,37.000,1.000,1.000,5.000,0
"03/12/08","10:16:02",22952.000,"cc",28318.441,6.00,6,0.100,21065.000,0.200,1268.000,0.300,495.000,0.500,117.000,1.000,7.000,5.000,0
"03/12/08","10:16:08",22699.000,"cc",28340.623,6.00,6,0.100,20875.000,0.200,1347.000,0.300,432.000,0.500,45.000,1.000,0,5.000,0
"03/12/08","10:16:14",22780.000,"cc",28279.830,6.00,6,0.100,21185.000,0.200,1163.000,0.300,370.000,0.500,62.000,1.000,0,5.000,0
"03/12/08","10:16:20",22710.000,"cc",28265.594,6.00,6,0.100,20893.000,0.200,1287.000,0.300,435.000,0.500,91.000,1.000,4.000,5.000,0
"03/12/08","10:16:26",23124.000,"cc",28308.818,6.00,6,0.100,21229.000,0.200,1335.000,0.300,490.000,0.500,70.000,1.000,0,5.000,0
"03/12/08","10:16:32",22827.000,"cc",28396.941,6.00,6,0.100,21177.000,0.200,1235.000,0.300,361.000,0.500,54.000,1.000,0,5.000,0
"03/12/08","10:16:38",22762.000,"cc",28281.816,6.00,6,0.100,21013.000,0.200,1217.000,0.300,447.000,0.500,84.000,1.000,1.000,5.000,0
"03/12/08","10:16:44",22935.000,"cc",28290.010,6.00,6,0.100,21029.000,0.200,1267.000,0.300,522.000,0.500,115.000,1.000,2.000,5.000,0
"03/12/08","10:16:50",23237.000,"cc",28263.877,6.00,6,0.100,21223.000,0.200,1348.000,0.300,518.000,0.500,140.000,1.000,8.000,5.000,0
"03/12/08","10:16:56",23200.000,"cc",28375.262,6.00,6,0.100,21306.000,0.200,1290.000,0.300,495.000,0.500,105.000,1.000,4.000,5.000,0